Ahmedabad, India

1:08 AM IST on September 27, 2016 (GMT +0530)
Ahmedabad

Weather History for VAAH - September, 2013

Change the Weather History Date:

Monday, September 30, 2013

  Actual Average Record
Temperature  
Mean Temperature 84 °F -  
Max Temperature 90 °F 92 °F 102 °F (2002)
Min Temperature 77 °F 75 °F 73 °F (2004)
Cooling Degree Days 18    
Growing Degree Days 34 (Base 50)    
Moisture  
Dew Point 79 °F    
Average Humidity 85    
Maximum Humidity 100    
Minimum Humidity 65    
Precipitation  
Precipitation 0.00 in - - ()
Sea Level Pressure  
Sea Level Pressure 29.60 in    
Wind  
Wind Speed 9 mph ()    
Max Wind Speed 18 mph    
Max Gust Speed -    
Visibility 2.1 miles    
Events Rain    
Averages and records for this station are not official NWS values.
T = Trace of Precipitation, MM = Missing Value Source: Averaged Metar Reports

Daily Weather History Graph

Daily Weather History Graph

Search for Another Location

Airport or City:

Trip Planner

Search our weather history database for the weather conditions in past years. The results will help you decide how hot, cold, wet, or windy it might be!

Date:

Astronomy

Sep. 30, 2013 Rise Set
Actual Time 6:30 AM IST 6:27 PM IST
Civil Twilight 6:08 AM IST 6:50 PM IST
Nautical Twilight 5:42 AM IST 7:16 PM IST
Astronomical Twilight 5:15 AM IST 7:42 PM IST
Moon 2:10 AM IST (9/30) 3:18 PM IST (9/30)
Length of Visible Light 12h 42m
Length of Day
11h 57m
Waning Crescent, 22% of the Moon is Illuminated
Sep 30
Waning Crescent
Oct 5
New
Oct 12
First Quarter
Oct 19
Full
Oct 27
Last Quarter

Hourly Weather History & Observations

Time (IST) Temp. Heat Index Dew Point Humidity Pressure Visibility Wind Dir Wind Speed Gust Speed Precip Events Conditions
12:10 AM 82.4 °F 94.0 °F 80.6 °F 94% 29.62 in 2.5 mi WSW 9.2 mph - N/A   Haze
12:40 AM 82.4 °F 94.0 °F 80.6 °F 94% 29.59 in 2.5 mi WSW 9.2 mph - N/A   Haze
1:40 AM 82.4 °F 92.4 °F 78.8 °F 89% 29.59 in 2.5 mi WSW 10.4 mph - N/A   Haze
2:10 AM 80.6 °F 88.1 °F 78.8 °F 94% 29.59 in 2.5 mi WSW 12.7 mph - N/A   Haze
2:30 AM 81 °F - 78 °F 87% 29.58 in 2 mi West 5.8 mph - -   Haze
2:40 AM 80.6 °F 88.1 °F 78.8 °F 94% 29.59 in 2.5 mi WSW 11.5 mph - N/A   Haze
3:10 AM 80.6 °F 88.1 °F 78.8 °F 94% 29.56 in 2.5 mi WSW 12.7 mph - N/A   Haze
3:40 AM 80.6 °F 88.1 °F 78.8 °F 94% 29.59 in 2.5 mi WSW 12.7 mph - N/A   Haze
4:10 AM 80.6 °F 88.1 °F 78.8 °F 94% 29.59 in 2.5 mi WSW 9.2 mph - N/A   Haze
4:40 AM 80.6 °F 88.1 °F 78.8 °F 94% 29.59 in 2.2 mi WSW 9.2 mph - N/A   Haze
5:10 AM 80.6 °F 87.1 °F 77.0 °F 89% 29.59 in 2.2 mi WSW 9.2 mph - N/A   Haze
5:30 AM 80 °F - 78 °F 91% 29.60 in 1 mi West 17.9 mph - -   Haze
5:40 AM 80.6 °F 87.1 °F 77.0 °F 89% 29.59 in 2.2 mi WSW 9.2 mph - N/A   Haze
6:40 AM 80.6 °F 88.1 °F 78.8 °F 94% 29.62 in 1.6 mi West 9.2 mph - N/A   Haze
7:10 AM 80.6 °F 87.1 °F 77.0 °F 89% 29.62 in 1.6 mi WSW 9.2 mph - N/A   Haze
8:10 AM 80.6 °F 87.1 °F 77.0 °F 89% 29.65 in 1.6 mi West 8.1 mph - N/A   Haze
8:30 AM 81 °F - 77 °F 85% 29.64 in 1 mi WSW 4.6 mph - -   Haze
9:10 AM 84.2 °F 96.1 °F 78.8 °F 84% 29.65 in 1.9 mi West 10.4 mph - N/A   Haze
9:40 AM 84.2 °F 96.1 °F 78.8 °F 84% 29.65 in 1.9 mi West 10.4 mph - N/A   Haze
10:10 AM 86.0 °F 101.9 °F 80.6 °F 84% 29.65 in 1.9 mi West 6.9 mph - N/A   Haze
10:40 AM 86.0 °F 101.9 °F 80.6 °F 84% 29.65 in 1.9 mi West 9.2 mph - N/A   Haze
11:10 AM 86.0 °F 99.3 °F 78.8 °F 79% 29.65 in 1.9 mi West 9.2 mph - N/A   Haze
11:30 AM 86 °F - 79 °F 75% 29.65 in 1 mi West 4.6 mph - -   Haze
11:40 AM 86.0 °F 101.9 °F 80.6 °F 84% 29.65 in 2.2 mi West 8.1 mph - N/A   Haze
12:10 PM 87.8 °F 104.9 °F 80.6 °F 79% 29.62 in 2.2 mi West 10.4 mph - N/A   Haze
12:40 PM 87.8 °F 104.9 °F 80.6 °F 79% 29.62 in 2.5 mi WSW 10.4 mph - N/A   Haze
1:10 PM 89.6 °F 108.2 °F 80.6 °F 75% 29.59 in 2.5 mi WSW 10.4 mph - N/A   Haze
1:40 PM 91.4 °F 111.0 °F 80.6 °F 71% 29.59 in 2.5 mi WSW 9.2 mph - N/A   Haze
2:10 PM 91.4 °F 114.3 °F 82.4 °F 75% 29.59 in 2.5 mi WSW 11.5 mph - N/A   Haze
2:30 PM 90 °F - 80 °F 65% 29.58 in 2 mi SW 5.8 mph - -   Haze
2:40 PM 91.4 °F 111.0 °F 80.6 °F 71% 29.56 in 2.5 mi WSW 9.2 mph - N/A   Haze
3:10 PM 91.4 °F 111.0 °F 80.6 °F 71% 29.53 in 2.5 mi SW 9.2 mph - N/A   Haze
3:40 PM 89.6 °F 111.1 °F 82.4 °F 79% 29.53 in 2.5 mi SW 11.5 mph - N/A   Haze
4:10 PM 89.6 °F 111.1 °F 82.4 °F 79% 29.53 in 2.2 mi SW 10.4 mph - N/A   Haze
4:40 PM 89.6 °F 111.1 °F 82.4 °F 79% 29.53 in 2.2 mi SW 10.4 mph - N/A   Haze
5:10 PM 89.6 °F 108.2 °F 80.6 °F 75% 29.53 in 2.2 mi SW 10.4 mph - N/A   Haze
5:30 PM 89 °F - 79 °F 66% 29.54 in 2 mi SW 4.6 mph - -   Haze
5:40 PM 89.6 °F 108.2 °F 80.6 °F 75% 29.53 in 2.5 mi SSW 9.2 mph - N/A   Haze
6:40 PM 86.0 °F 104.7 °F 82.4 °F 89% 29.56 in 1.9 mi South 9.2 mph - N/A   Haze
7:10 PM 86.0 °F 101.9 °F 80.6 °F 84% 29.56 in 1.9 mi South 11.5 mph - N/A   Haze
8:10 PM 78.8 °F - 78.8 °F 100% 29.59 in 1.2 mi West 8.1 mph - N/A Rain Light Rain
8:30 PM 78 °F - 76 °F 93% 29.60 in 1 mi West 2.3 mph - -   Overcast
9:10 PM 77.0 °F - 75.2 °F 94% 29.62 in 1.9 mi SW 9.2 mph - N/A   Haze
9:40 PM 77.0 °F - 75.2 °F 94% 29.65 in 1.9 mi WSW 8.1 mph - N/A   Haze
10:10 PM 77.0 °F - 75.2 °F 94% 29.65 in 1.9 mi WSW 8.1 mph - N/A   Haze
10:40 PM 78.8 °F - 75.2 °F 89% 29.62 in 2.5 mi West 5.8 mph - N/A   Haze
11:10 PM 78.8 °F - 75.2 °F 89% 29.62 in 2.5 mi WSW 4.6 mph - N/A   Haze
11:30 PM 78 °F - 75 °F 88% 29.63 in 1 mi Calm Calm - -   Haze
11:40 PM 78.8 °F - 77.0 °F 94% 29.62 in 2.5 mi West 3.5 mph - N/A   Haze